FW8622 Weather Reports


time (UTC)temp
C
wind
direction
speed
KPH
gust
KPH
rain 1hr
cm
rain 24hr
cm
rain mn
cm
humidity
%
barometer
mb
20260505060544 9 0 0.0 4.8 0.00 0.00 0.00 91 1014.0
20260505060050 9 0 0.0 4.8 0.00 0.00 0.00 90 1014.0
20260505055546 9 0 0.0 3.2 0.00 0.00 0.00 90 1014.0
20260505055045 9 0 0.0 6.4 0.00 0.00 0.00 90 1013.8
20260505054558 9 0 0.0 6.4 0.00 0.00 0.00 90 1013.8
20260505054044 9 0 0.0 3.2 0.00 0.00 0.00 90 1013.8
20260505053544 9 0 0.0 3.2 0.00 0.00 0.00 90 1013.8
20260505053048 9 0 0.0 3.2 0.00 0.00 0.00 89 1013.7
20260505052545 9 0 0.0 3.2 0.00 0.00 0.00 89 1013.7
20260505052048 9 0 0.0 3.2 0.00 0.00 0.00 89 1013.6
20260505051552 9 0 0.0 3.2 0.00 0.00 0.00 89 1013.5
20260505051044 9 0 0.0 3.2 0.00 0.00 0.00 89 1013.5
20260505050544 9 0 0.0 3.2 0.00 0.00 0.00 89 1013.6
20260505041556 9 0 0.0 3.2 0.00 0.00 0.00 89 1013.6
20260505041047 9 0 0.0 1.6 0.00 0.00 0.00 89 1013.6
20260505040547 9 0 0.0 1.6 0.00 0.00 0.00 89 1013.7
20260505035619 10 0 0.0 1.6 0.00 0.00 0.00 89 1013.8
20260505035047 10 0 0.0 1.6 0.00 0.00 0.00 89 1013.7
20260505034611 10 0 0.0 3.2 0.00 0.00 0.00 89 1013.8
20260505034045 10 0 0.0 3.2 0.00 0.00 0.00 89 1013.6
20260505033545 10 0 0.0 3.2 0.00 0.00 0.00 89 1013.7
20260505033051 10 0 0.0 1.6 0.00 0.00 0.00 89 1013.7
20260505032545 10 0 0.0 0.0 0.00 0.00 0.00 89 1013.7
20260505032046 10 0 0.0 1.6 0.00 0.00 0.00 89 1013.5
20260505031548 10 0 0.0 3.2 0.00 0.00 0.00 88 1013.5
20260505031046 10 0 0.0 3.2 0.00 0.00 0.00 88 1013.6
20260505030550 10 84 0.0 4.8 0.00 0.00 0.00 88 1013.5
20260505030101 10 0 0.0 4.8 0.00 0.00 0.00 88 1013.7
20260505025544 10 82 0.0 4.8 0.00 0.00 0.00 88 1013.5
20260505025045 10 0 0.0 4.8 0.00 0.00 0.00 88 1013.6
20260505024606 10 0 0.0 4.8 0.00 0.00 0.00 88 1013.7
20260505024045 10 0 0.0 1.6 0.00 0.00 0.00 89 1013.7
20260505023545 10 0 0.0 4.8 0.00 0.00 0.00 89 1013.8
20260505023054 10 0 0.0 4.8 0.00 0.00 0.00 89 1013.8
20260505022545 10 0 0.0 4.8 0.00 0.00 0.00 89 1013.9
20260505022045 10 0 0.0 1.6 0.00 0.00 0.00 89 1013.8
20260505021550 10 0 0.0 1.6 0.00 0.00 0.00 89 1013.8
20260505021044 10 0 0.0 4.8 0.00 0.00 0.00 89 1014.0
20260505020544 10 0 0.0 4.8 0.00 0.00 0.00 89 1013.9
20260505020104 10 0 0.0 3.2 0.00 0.00 0.00 89 1014.0
20260505015545 10 0 0.0 4.8 0.00 0.00 0.00 89 1014.0
20260505015048 10 0 0.0 4.8 0.00 0.00 0.00 89 1014.0
20260505014548 10 0 0.0 4.8 0.00 0.00 0.00 89 1014.0
20260505014044 10 0 0.0 6.4 0.00 0.00 0.00 88 1014.1
20260505013545 10 0 0.0 6.4 0.00 0.00 0.00 88 1014.1
20260505013054 10 0 0.0 4.8 0.00 0.00 0.00 89 1014.2
20260505012546 10 0 0.0 1.6 0.00 0.00 0.00 89 1014.2
20260505012044 10 318 0.0 3.2 0.00 0.00 0.00 89 1014.2
20260505011550 10 0 0.0 3.2 0.00 0.00 0.00 88 1014.2
20260505011047 10 0 0.0 3.2 0.00 0.00 0.00 88 1014.3
20260505010545 10 0 0.0 3.2 0.00 0.00 0.00 88 1014.4
20260505010107 10 0 0.0 3.2 0.00 0.00 0.00 88 1014.3
20260505005544 10 0 0.0 1.6 0.00 0.00 0.00 88 1014.4
20260505005045 10 0 0.0 4.8 0.00 0.00 0.00 88 1014.4
20260505004605 10 0 0.0 4.8 0.00 0.00 0.00 88 1014.5
20260505004047 10 0 0.0 3.2 0.00 0.00 0.00 88 1014.5
20260505003548 10 0 0.0 3.2 0.00 0.00 0.00 88 1014.6
20260505003100 10 0 0.0 3.2 0.00 0.00 0.00 88 1014.6
20260505002547 10 289 0.0 3.2 0.00 0.00 0.00 88 1014.5
20260505002047 10 0 0.0 3.2 0.00 0.00 0.00 88 1014.6
20260505001555 10 0 0.0 4.8 0.00 0.00 0.00 88 1014.7
20260505001047 10 0 0.0 4.8 0.00 0.00 0.00 88 1014.6
20260505000548 10 0 0.0 4.8 0.00 0.00 0.00 88 1014.5
20260505000111 10 0 0.0 4.8 0.00 0.00 0.00 88 1014.7
20260504235548 11 302 0.0 3.2 0.00 0.00 0.00 88 1014.7
20260504235048 11 0 0.0 4.8 0.00 0.00 0.00 88 1014.7
20260504234555 11 0 0.0 4.8 0.00 0.00 0.00 88 1014.7
20260504234045 11 0 0.0 6.4 0.00 0.00 0.00 88 1014.7
20260504233548 11 0 0.0 6.4 0.00 0.00 0.00 88 1014.9
20260504233051 11 0 0.0 3.2 0.00 0.00 0.00 88 1014.9
20260504232546 11 0 0.0 3.2 0.00 0.00 0.00 88 1014.9
20260504232045 11 0 0.0 3.2 0.00 0.00 0.00 88 1014.9
20260504231622 11 0 0.0 3.2 0.00 0.00 0.00 88 1014.9
20260504231048 11 0 0.0 3.2 0.00 0.00 0.00 88 1015.0
20260504230547 11 0 0.0 3.2 0.00 0.00 0.00 88 1014.8
20260504230053 11 0 0.0 3.2 0.00 0.00 0.00 87 1014.8
20260504225547 11 0 0.0 3.2 0.00 0.00 0.00 88 1014.9
20260504225051 11 0 0.0 4.8 0.00 0.00 0.00 88 1015.0
20260504224554 11 0 0.0 4.8 0.00 0.00 0.00 88 1015.0
20260504224048 11 0 0.0 4.8 0.00 0.00 0.00 88 1014.9
20260504223547 11 0 0.0 3.2 0.00 0.00 0.00 88 1015.0
20260504223054 11 0 0.0 3.2 0.00 0.00 0.00 88 1014.9
20260504222545 11 0 0.0 1.6 0.00 0.00 0.00 88 1015.1
20260504222048 11 0 0.0 3.2 0.00 0.00 0.00 88 1015.1
20260504221632 11 0 0.0 4.8 0.00 0.00 0.00 88 1015.0
20260504221045 11 309 0.0 4.8 0.00 0.00 0.00 88 1015.1
20260504220545 12 289 0.0 1.6 0.00 0.00 0.00 88 1015.2
20260504220057 12 0 0.0 1.6 0.00 0.00 0.00 88 1015.2
20260504215546 12 0 0.0 1.6 0.00 0.00 0.00 88 1015.2
20260504215047 12 0 0.0 3.2 0.00 0.00 0.00 88 1015.2
20260504214550 12 0 0.0 3.2 0.00 0.00 0.00 88 1015.3
20260504214046 12 0 0.0 3.2 0.00 0.00 0.00 88 1015.3
20260504213544 12 0 0.0 3.2 0.00 0.00 0.00 88 1015.4
20260504213059 12 0 0.0 3.2 0.00 0.00 0.00 88 1015.3
20260504212545 12 0 0.0 3.2 0.00 0.00 0.00 88 1015.4
20260504212044 12 313 0.0 3.2 0.00 0.00 0.00 88 1015.4
20260504211550 12 0 0.0 3.2 0.00 0.00 0.00 88 1015.4
20260504211044 12 0 0.0 3.2 0.00 0.00 0.00 88 1015.4
20260504210544 12 0 0.0 4.8 0.00 0.00 0.00 88 1015.4
20260504210051 12 0 0.0 4.8 0.00 0.00 0.00 88 1015.4
20260504205544 12 0 0.0 4.8 0.00 0.00 0.00 88 1015.4
20260504205044 12 0 0.0 4.8 0.00 0.00 0.00 88 1015.4
20260504204552 12 0 0.0 3.2 0.00 0.00 0.00 88 1015.4
20260504204045 12 0 0.0 4.8 0.00 0.00 0.00 89 1015.4
20260504203544 12 0 0.0 4.8 0.00 0.00 0.00 88 1015.3
20260504203049 12 302 0.0 4.8 0.00 0.00 0.00 89 1015.3
20260504202544 12 0 0.0 4.8 0.00 0.00 0.00 89 1015.4
20260504202045 12 0 0.0 4.8 0.00 0.00 0.00 89 1015.4
20260504201555 12 0 1.6 4.8 0.00 0.00 0.00 88 1015.2
20260504201043 12 0 0.0 3.2 0.00 0.00 0.00 88 1015.3
20260504200547 12 0 0.0 4.8 0.00 0.00 0.00 88 1015.3
20260504200051 12 0 0.0 4.8 0.00 0.00 0.00 88 1015.2
20260504195544 13 0 0.0 4.8 0.00 0.00 0.00 88 1015.2
20260504195047 13 0 0.0 4.8 0.00 0.00 0.00 88 1015.0
20260504194556 13 0 0.0 1.6 0.00 0.00 0.00 88 1014.8
20260504194047 13 0 0.0 6.4 0.00 0.00 0.00 88 1014.8
20260504193547 13 0 0.0 6.4 0.00 0.00 0.00 88 1014.7
20260504193053 13 0 0.0 3.2 0.00 0.00 0.00 88 1014.8
20260504192547 13 0 0.0 3.2 0.00 0.00 0.00 88 1014.7
20260504192048 13 301 0.0 3.2 0.00 0.00 0.00 88 1014.7
20260504191613 13 315 0.0 6.4 0.00 0.00 0.00 88 1014.7
20260504191044 13 0 0.0 6.4 0.00 0.00 0.00 88 1014.7
20260504190547 13 0 0.0 4.8 0.00 0.00 0.00 88 1014.6
20260504190049 13 0 0.0 1.6 0.00 0.00 0.00 88 1014.6
20260504185546 13 0 0.0 4.8 0.00 0.00 0.00 88 1014.7
20260504185043 13 0 0.0 4.8 0.00 0.00 0.00 87 1014.5
20260504184556 13 0 0.0 4.8 0.00 0.00 0.00 87 1014.5
20260504184047 13 0 0.0 4.8 0.00 0.00 0.00 87 1014.5
20260504183547 13 303 0.0 4.8 0.00 0.00 0.00 87 1014.5
20260504183054 13 301 0.0 6.4 0.00 0.00 0.00 87 1014.6
20260504182548 13 0 0.0 6.4 0.00 0.00 0.00 87 1014.5
20260504182047 14 0 0.0 4.8 0.00 0.00 0.00 87 1014.5
20260504181556 14 0 0.0 4.8 0.00 0.00 0.00 87 1014.4
20260504181045 14 297 0.0 4.8 0.00 0.00 0.00 87 1014.5
20260504180547 14 295 0.0 4.8 0.00 0.00 0.00 87 1014.5
20260504180055 14 305 0.0 4.8 0.00 0.00 0.00 87 1014.4
20260504175546 14 0 0.0 4.8 0.00 0.00 0.00 87 1014.5
20260504175048 14 320 0.0 8.0 0.00 0.00 0.00 87 1014.6
20260504174552 14 0 1.6 8.0 0.00 0.00 0.00 87 1014.6
20260504174048 14 280 0.0 6.4 0.00 0.00 0.00 87 1014.5
20260504173548 14 0 0.0 6.4 0.00 0.00 0.00 87 1014.6
20260504173054 15 305 0.0 6.4 0.00 0.00 0.00 87 1014.4
20260504172547 15 0 0.0 6.4 0.00 0.00 0.00 87 1014.5
20260504172047 15 0 1.6 6.4 0.00 0.00 0.00 87 1014.6
20260504171558 15 313 0.0 11.3 0.00 0.00 0.00 87 1014.6
20260504171045 15 0 0.0 11.3 0.00 0.00 0.00 86 1014.6
20260504170548 15 335 1.6 9.7 0.00 0.00 0.00 86 1014.5
20260504151047 17 287 0.0 4.8 0.00 0.00 0.00 82 1014.5
20260504150547 16 313 0.0 4.8 0.00 0.00 0.00 83 1014.4
20260504141049 17 0 0.0 4.8 0.00 0.00 0.00 81 1014.6
20260504140546 17 303 0.0 6.4 0.00 0.00 0.00 81 1014.6
20260504140105 17 0 0.0 6.4 0.00 0.00 0.00 80 1014.6
20260504130547 17 0 0.0 6.4 0.00 0.08 0.00 81 1014.8
20260504110547 17 0 0.0 0.0 0.00 0.28 0.00 84 1014.7
20260504100545 15 0 0.0 0.0 0.00 0.30 0.00 95 1014.9
20260504081552 13 0 0.0 0.0 0.00 0.30 0.00 98 1014.5
20260504081044 13 0 0.0 0.0 0.00 0.30 0.00 98 1014.6
20260504080545 12 0 0.0 0.0 0.00 0.30 0.00 98 1014.5